Weather Roundup
Issued by NWS Springfield, MO

Home | Current Version | Previous Version | Text Only | Print | Product List | Glossary On
Versions: 1 2 3 4 5 6 7 8 9 10 11 12 13 14 15 16 17 18 19 20 21 22 23 24 25 26 27 28 29 30 31 32 33 34 35 36 37 38 39 40 41 42 43 44 45 46 47 48 49 50
000
NZUS99 KSGF 240907
HRRSGF

HOURLY WEATHER
NATIONAL WEATHER SERVICE SPRINGFIELD MO
300 AM CST TUE JAN 24 2017

......SGF CWA......

CITY           SKY/WX    TMP DP  RH WIND       PRES   REMARKS
SPRINGFIELD    CLEAR     35  31  85 SE10      29.80R WCI  27
JOPLIN         CLEAR     40  34  79 SE9       29.75F WCI  34
WEST PLAINS    CLOUDY    29  26  89 CALM      29.86S
ROLLA          FOG       27  26  96 CALM      29.85S VSB 1/4
OSAGE BEACH    CLEAR     27  26  96 E5        29.87S FOG     WCI  22
BRANSON        CLEAR     37  32  81 SE8       29.82S WCI  31

......SURROUNDING SGF CWA......

CITY           SKY/WX    TMP DP  RH WIND       PRES   REMARKS
CHANUTE        CLEAR     38  32  79 E10       29.70F WCI  31
PARSONS        CLEAR     43  33  68 SE8       29.70F
COFFEYVILLE    CLEAR     42  33  70 E10       29.69F
EMPORIA        CLOUDY    35  32  88 E15       29.66F WCI  25
GROVE OK       CLEAR     37  36  93 E5        29.75F WCI  34
ROGERS AR      CLEAR     38  35  89 E9        29.77F WCI  31
SILOAM SPRINGS   N/A    N/A N/A N/A MISG        N/A
HARRISON AR    CLEAR     33  32  96 SE9       29.81F WCI  25
NEAR YELLVILLE CLEAR     30  25  80 CALM      29.82F

......KANSAS AND MISSOURI......

CITY           SKY/WX    TMP DP  RH WIND       PRES   REMARKS
KANSAS CTY INT CLEAR     31  27  85 E13       29.79S WCI  21
DOWNTOWN KC    CLEAR     32  30  92 E10       29.81S WCI  24
COLUMBIA       CLOUDY    33  31  92 E5        29.88R WCI  29
SEDALIA        CLEAR     29  27  92 E7        29.86S FOG     WCI  22
ST JOSEPH      CLEAR     30  29  96 E10       29.81F WCI  21
ST LOUIS       CLOUDY    40  31  70 NW3       29.89R
SPIRIT OF STL  CLOUDY    39  34  82 CALM      29.88R
KIRKSVILLE     CLOUDY    31  30  96 CALM      29.89R
WICHITA        CLOUDY    41  31  67 SE12      29.58F
TOPEKA         CLEAR     33  30  88 E10       29.74F WCI  25
OLATHE         CLEAR     32  30  92 E10       29.77F WCI  24

......TENNESSEE......

CITY           SKY/WX    TMP DP  RH WIND       PRES   REMARKS
MEMPHIS        CLEAR     37  35  92 CALM      29.89R
NASHVILLE      CLOUDY    42  33  70 NW7       29.87R

......ARKANSAS.......

CITY           SKY/WX    TMP DP  RH WIND       PRES   REMARKS
FAYETTEVILLE   CLEAR     29  29 100 CALM      29.77F
FT SMITH       CLEAR     39  35  86 NE8       29.79F WCI  33
LITTLE ROCK    CLEAR     36  36 100 CALM      29.89R

......OKLAHOMA.......

CITY           SKY/WX    TMP DP  RH WIND       PRES   REMARKS
TULSA          PTCLDY    46  34  62 SE10      29.67F
PONCA CITY     CLOUDY    46  31  55 SE16      29.59F
MCALESTER      CLEAR     54  30  40 SE5       29.71F
OKLAHOMA CITY  PTCLDY    43  35  73 S12       29.61F

......IOWA............

CITY           SKY/WX    TMP DP  RH WIND       PRES   REMARKS
DES MOINES     CLOUDY    32  27  81 SE5       29.87R WCI  27
QUAD CITIES    CLOUDY    35  31  85 CALM      29.86F

......ILLINOIS........

CITY           SKY/WX    TMP DP  RH WIND       PRES   REMARKS
QUINCY         CLOUDY    34  29  82 CALM      29.88R
CHICAGO        CLOUDY    37  34  89 NW10      29.83R WCI  30




USA.gov is the U.S. government's official web portal to all federal, state and local government web resources and services.